Tan Ce 2

operational
NORAD ID: 28382 Int'l Des: 2004-029 Owner: CASC Country: CN
MEOELLIPTICALPOLARHEO_ELLIPTICAL

Über Tan Ce 2

Beschreibung wird geladen...

Live-Position

3D-Globus wird geladen...

Nächste Überflüge

Höhenverlauf

Altitude vs Time

uPlot chart will show altitude changes over time

Zweizeiliger Elementsatz

1 28382U 04029A 26060.11513463 .00028433 00000-0 35175-2 0 9999
2 28382 87.9079 238.6309 7048747 144.8865 293.5955 2.59525100177854
Epoch: 1. März 2026 • Age: 47 hours

Aktueller Status

Höhe 29458.9 km
Geschwindigkeit 2.10 km/s
Subsatellitenpunkt -22.32°S, 85.72°E
Startdatum 25. Juli 2004
Alter 21.6 years
Typ other

Technische Details

Klassifizierung Payload
Masse 343.00 kg
Trockenmasse 343.00 kg
Gesamtmasse 343.00 kg
Länge 2.10 m
Durchmesser 1.40 m
Spannweite 10.00 m
Form Cyl + 2 Ant
Hersteller DFH
Bus-Typ CAST-968
Phasenstatus In Orbit
Besitzer/Staat CASC/CN

Große Konstellationen

Loading constellations...